GW5108 Weather Reports


Display with metric or nautical units.
time (UTC)temp
F
wind
direction
speed
MPH
gust
MPH
rain 1hr
in
rain 24hr
in
rain mn
in
humidity
%
barometer
mb
20260502151913 47 280 4.0 9.0 0.00 0.00 0.00 51 1017.6
20260502151409 48 0 9.0 11.0 0.00 0.00 0.00 52 1017.5
20260502150907 47 22 4.0 11.0 0.00 0.00 0.00 52 1017.5
20260502150403 47 336 7.0 11.0 0.00 0.00 0.00 53 1017.9
20260502130249 41 297 2.0 3.0 0.00 0.00 0.00 77 1017.7
20260502123735 40 331 2.0 4.0 0.00 0.00 0.00 81 1017.6
20260502123232 40 324 1.0 4.0 0.00 0.00 0.00 81 1017.9
20260502122728 40 296 4.0 4.0 0.00 0.00 0.00 82 1017.7
20260502122224 39 293 4.0 6.0 0.00 0.00 0.00 82 1017.6
20260502121723 39 322 2.0 3.0 0.00 0.00 0.00 83 1017.6
20260502121220 39 299 3.0 3.0 0.00 0.00 0.00 84 1017.6
20260502120716 39 296 4.0 6.0 0.00 0.00 0.00 85 1017.7
20260502120213 38 308 2.0 4.0 0.00 0.00 0.00 85 1017.5
20260502115711 38 352 1.0 4.0 0.00 0.00 0.00 85 1017.7
20260502115208 38 359 2.0 3.0 0.00 0.00 0.00 85 1017.7
20260502114703 39 15 2.0 6.0 0.00 0.00 0.00 84 1017.6
20260502114201 39 350 2.0 4.0 0.00 0.00 0.00 85 1017.4
20260502113658 39 325 1.0 2.0 0.00 0.00 0.00 85 1017.5
20260502113156 39 305 2.0 3.0 0.00 0.00 0.00 86 1017.5
20260502112654 38 305 1.0 2.0 0.00 0.00 0.00 87 1017.6
20260502112151 37 316 1.0 2.0 0.00 0.00 0.00 88 1017.3
20260502111648 36 319 1.0 2.0 0.00 0.00 0.00 88 1017.4
20260502111146 36 320 0.0 1.0 0.00 0.00 0.00 88 1017.5
20260502110643 36 320 1.0 2.0 0.00 0.00 0.00 88 1017.3
20260502110140 36 307 2.0 2.0 0.00 0.00 0.00 88 1017.4
20260502105638 36 332 1.0 2.0 0.00 0.00 0.00 88 1017.1
20260502105135 36 333 2.0 2.0 0.00 0.00 0.00 87 1017.3
20260502104632 36 323 1.0 2.0 0.00 0.00 0.00 87 1017.2
20260502104129 36 328 2.0 3.0 0.00 0.00 0.00 87 1017.2
20260502103627 36 324 1.0 2.0 0.00 0.00 0.00 87 1017.2
20260502103125 36 306 1.0 3.0 0.00 0.00 0.00 86 1017.4
20260502102621 37 313 2.0 4.0 0.00 0.00 0.00 86 1017.6
20260502102112 37 319 2.0 4.0 0.00 0.00 0.00 86 1017.6
20260502101610 37 317 2.0 2.0 0.00 0.00 0.00 85 1017.5
20260502101108 37 292 1.0 2.0 0.00 0.00 0.00 84 1017.4
20260502100607 37 297 2.0 3.0 0.00 0.00 0.00 85 1017.4
20260502100105 37 314 6.0 7.0 0.00 0.00 0.00 85 1017.5
20260502091038 38 321 2.0 3.0 0.00 0.00 0.00 80 1017.6
20260502090535 38 314 2.0 3.0 0.00 0.00 0.00 80 1017.7
20260502071430 42 322 4.0 7.0 0.00 0.00 0.00 69 1017.2
20260502070928 42 322 3.0 7.0 0.00 0.00 0.00 69 1017.2
20260502070426 42 315 4.0 6.0 0.00 0.00 0.00 69 1017.3
20260502065924 42 321 2.0 6.0 0.00 0.00 0.00 70 1017.3
20260502065422 42 315 5.0 7.0 0.00 0.00 0.00 69 1017.6
20260502064920 42 319 3.0 6.0 0.00 0.00 0.00 70 1017.4
20260502064417 42 312 6.0 7.0 0.00 0.00 0.00 68 1017.5
20260502063914 42 321 2.0 3.0 0.00 0.00 0.00 70 1017.4
20260502063412 42 301 4.0 6.0 0.00 0.00 0.00 69 1017.5
20260502062910 42 316 3.0 4.0 0.00 0.00 0.00 70 1017.6
20260502062407 42 328 3.0 4.0 0.00 0.00 0.00 69 1017.7
20260502061906 43 320 4.0 9.0 0.00 0.00 0.00 68 1017.9
20260502061403 43 324 2.0 6.0 0.00 0.00 0.00 68 1018.0
20260502060859 43 309 4.0 7.0 0.00 0.00 0.00 68 1017.7
20260502060358 43 349 2.0 3.0 0.00 0.00 0.00 69 1018.0
20260502055856 43 19 4.0 7.0 0.00 0.00 0.00 67 1017.9
20260502055354 43 296 3.0 6.0 0.00 0.00 0.00 71 1018.0
20260502054854 43 318 7.0 8.0 0.00 0.00 0.00 74 1018.0
20260502054351 44 328 4.0 6.0 0.00 0.00 0.00 75 1018.0
20260502053848 44 11 2.0 7.0 0.00 0.00 0.00 75 1017.9
20260502053345 44 305 6.0 10.0 0.00 0.00 0.00 75 1018.0
20260502052843 44 12 7.0 9.0 0.00 0.00 0.00 75 1017.9
20260502052341 44 336 7.0 11.0 0.00 0.00 0.00 78 1017.9
20260502051838 44 336 4.0 8.0 0.00 0.00 0.00 79 1018.0
20260502051337 44 344 9.0 9.0 0.00 0.00 0.00 79 1017.9
20260502050833 44 334 4.0 10.0 0.00 0.00 0.00 80 1017.5
20260502050329 45 310 7.0 10.0 0.00 0.00 0.00 81 1017.6
20260502045826 45 308 5.0 9.0 0.00 0.00 0.00 81 1017.6
20260502045323 45 310 3.0 6.0 0.00 0.00 0.00 81 1017.7
20260502044821 45 308 4.0 6.0 0.00 0.00 0.00 81 1017.9
20260502044316 45 309 8.0 9.0 0.00 0.00 0.00 80 1017.7
20260502043814 45 348 5.0 8.0 0.00 0.00 0.00 80 1018.0
20260502043311 45 341 6.0 8.0 0.00 0.00 0.00 80 1018.0
20260502042811 45 323 6.0 9.0 0.00 0.00 0.00 79 1018.1
20260502042308 45 314 5.0 11.0 0.00 0.00 0.00 79 1018.0
20260502041806 45 339 7.0 8.0 0.00 0.00 0.00 78 1018.0
20260502041303 45 333 4.0 4.0 0.00 0.00 0.00 79 1017.7
20260502040800 45 321 6.0 7.0 0.00 0.00 0.00 78 1017.7
20260502040256 45 346 3.0 7.0 0.00 0.00 0.00 78 1017.7
20260502035752 45 310 3.0 4.0 0.00 0.00 0.00 78 1018.0
20260502035249 46 313 4.0 8.0 0.00 0.00 0.00 78 1017.7
20260502034747 46 327 4.0 10.0 0.00 0.00 0.00 78 1017.7
20260502034245 46 7 2.0 3.0 0.00 0.00 0.00 77 1017.9
20260502033743 46 347 4.0 8.0 0.00 0.00 0.00 77 1018.1
20260502033240 46 327 2.0 6.0 0.00 0.00 0.00 77 1018.0
20260502032737 46 321 2.0 7.0 0.00 0.00 0.00 76 1018.0
20260502032233 46 1 5.0 7.0 0.00 0.00 0.00 76 1018.1
20260502031732 46 326 6.0 9.0 0.00 0.00 0.00 75 1018.0
20260502031229 46 341 11.0 15.0 0.00 0.00 0.00 74 1018.1
20260502030727 46 342 6.0 11.0 0.00 0.00 0.00 75 1017.9
20260502030225 46 328 6.0 8.0 0.00 0.00 0.00 76 1018.1
20260502025721 47 330 5.0 9.0 0.00 0.00 0.00 75 1018.1
20260502025220 47 313 3.0 6.0 0.00 0.00 0.00 76 1018.0
20260502024717 47 344 7.0 10.0 0.00 0.00 0.00 76 1018.0
20260502024215 47 333 3.0 7.0 0.00 0.00 0.00 75 1017.7
20260502023713 47 322 4.0 6.0 0.00 0.00 0.00 75 1017.7
20260502023210 47 315 4.0 7.0 0.00 0.00 0.00 75 1017.7
20260502022707 47 318 5.0 11.0 0.00 0.00 0.00 75 1017.6
20260502022204 47 342 10.0 11.0 0.00 0.00 0.00 74 1017.4
20260502021701 47 8 5.0 9.0 0.00 0.00 0.00 73 1017.3
20260502021158 47 3 7.0 10.0 0.00 0.00 0.00 73 1017.1
20260502020655 48 339 10.0 11.0 0.00 0.00 0.00 74 1017.6
20260502020152 48 322 5.0 10.0 0.00 0.00 0.00 75 1017.3
20260502015650 48 335 9.0 10.0 0.00 0.00 0.00 74 1017.1
20260502015146 48 326 7.0 13.0 0.00 0.00 0.00 75 1017.0
20260502014644 48 323 6.0 10.0 0.00 0.00 0.00 75 1016.7
20260502014140 48 330 7.0 9.0 0.00 0.00 0.00 76 1016.7
20260502013636 48 357 5.0 6.0 0.00 0.00 0.00 76 1016.6
20260502013132 49 326 7.0 10.0 0.00 0.00 0.00 75 1016.6
20260502012630 48 346 7.0 9.0 0.00 0.00 0.00 76 1016.6
20260502012128 48 330 6.0 9.0 0.00 0.00 0.00 76 1016.3
20260502011624 49 328 9.0 16.0 0.00 0.00 0.00 77 1016.5
20260502011120 49 294 7.0 10.0 0.00 0.00 0.00 78 1016.5
20260502010618 49 324 7.0 10.0 0.00 0.00 0.00 78 1016.2
20260502010114 49 6 5.0 8.0 0.00 0.00 0.00 78 1016.0
20260502005612 49 324 5.0 13.0 0.00 0.00 0.00 78 1015.9
20260502005109 49 348 6.0 8.0 0.00 0.00 0.00 77 1015.9
20260502004604 49 311 8.0 10.0 0.00 0.00 0.00 77 1015.8
20260502004102 49 318 5.0 7.0 0.00 0.00 0.00 76 1015.7
20260502003600 49 333 6.0 10.0 0.00 0.00 0.00 76 1015.6
20260502003057 49 337 9.0 18.0 0.00 0.00 0.00 74 1015.6
20260502002553 49 320 6.0 8.0 0.00 0.00 0.00 74 1015.7
20260502002050 50 333 6.0 9.0 0.00 0.00 0.00 73 1015.5
20260502001548 50 333 4.0 9.0 0.00 0.00 0.00 72 1015.4
20260502001044 51 328 7.0 11.0 0.00 0.00 0.00 70 1015.2
20260502000543 51 310 9.0 13.0 0.00 0.00 0.00 69 1015.2
20260502000040 51 326 6.0 9.0 0.00 0.00 0.00 68 1015.1
20260501235535 52 306 7.0 21.0 0.00 0.00 0.00 68 1014.6
20260501235031 54 307 9.0 14.0 0.00 0.00 0.00 61 1014.4
20260501234527 55 339 4.0 11.0 0.00 0.00 0.00 57 1014.3
20260501234026 57 312 12.0 19.0 0.00 0.00 0.00 50 1013.9
20260501233523 58 316 4.0 8.0 0.00 0.00 0.00 47 1013.8
20260501233021 58 352 6.0 7.0 0.00 0.00 0.00 46 1013.8
20260501232516 59 301 7.0 17.0 0.00 0.00 0.00 44 1013.7
20260501232013 60 310 10.0 15.0 0.00 0.00 0.00 41 1013.5
20260501231511 60 316 6.0 11.0 0.00 0.00 0.00 41 1013.7
20260501231009 60 311 9.0 13.0 0.00 0.00 0.00 41 1013.7
20260501230508 59 316 7.0 14.0 0.00 0.00 0.00 41 1013.7
20260501230005 60 314 6.0 11.0 0.00 0.00 0.00 42 1013.4
20260501225503 61 279 11.0 13.0 0.00 0.00 0.00 42 1013.4
20260501224958 61 310 12.0 13.0 0.00 0.00 0.00 37 1013.5
20260501224456 61 305 10.0 14.0 0.00 0.00 0.00 37 1013.7
20260501223953 60 312 9.0 11.0 0.00 0.00 0.00 39 1013.4
20260501223449 61 257 6.0 25.0 0.00 0.00 0.00 38 1013.4
20260501222944 62 294 11.0 14.0 0.00 0.00 0.00 35 1013.3
20260501222442 62 306 12.0 13.0 0.00 0.00 0.00 35 1013.7
20260501221938 62 319 10.0 14.0 0.00 0.00 0.00 34 1013.5
20260501221436 62 316 12.0 15.0 0.00 0.00 0.00 36 1013.4
20260501220933 62 284 10.0 11.0 0.00 0.00 0.00 33 1013.7
20260501220431 62 252 4.0 9.0 0.00 0.00 0.00 36 1013.7
20260501215926 63 286 8.0 14.0 0.00 0.00 0.00 35 1013.7
20260501215424 62 277 6.0 15.0 0.00 0.00 0.00 35 1013.5
20260501214919 61 318 10.0 18.0 0.00 0.00 0.00 36 1013.5
20260501214415 61 312 6.0 10.0 0.00 0.00 0.00 36 1013.7
20260501213910 62 275 13.0 22.0 0.00 0.00 0.00 34 1013.4
20260501213408 63 310 9.0 14.0 0.00 0.00 0.00 39 1013.5
20260501212903 63 304 3.0 9.0 0.00 0.00 0.00 34 1013.4
20260501212400 63 282 13.0 16.0 0.00 0.00 0.00 33 1013.5
20260501211857 63 332 12.0 17.0 0.00 0.00 0.00 37 1013.5
20260501211354 63 298 13.0 16.0 0.00 0.00 0.00 33 1013.8
20260501210851 62 303 14.0 21.0 0.00 0.00 0.00 34 1013.4
20260501210348 64 298 6.0 14.0 0.00 0.00 0.00 32 1013.2
20260501205844 63 272 6.0 10.0 0.00 0.00 0.00 33 1013.5
20260501205341 62 305 11.0 14.0 0.00 0.00 0.00 32 1013.5
20260501204838 63 281 7.0 13.0 0.00 0.00 0.00 34 1013.3
20260501204335 64 315 14.0 21.0 0.00 0.00 0.00 31 1013.5
20260501203831 64 281 13.0 17.0 0.00 0.00 0.00 30 1013.3
20260501203329 64 282 7.0 14.0 0.00 0.00 0.00 32 1013.5
20260501202826 64 288 9.0 17.0 0.00 0.00 0.00 29 1013.2
20260501202323 64 267 11.0 16.0 0.00 0.00 0.00 30 1013.3
20260501201820 65 303 15.0 16.0 0.00 0.00 0.00 33 1013.7
20260501201316 65 255 5.0 11.0 0.00 0.00 0.00 32 1013.7
20260501200812 64 248 5.0 9.0 0.00 0.00 0.00 31 1013.4
20260501200309 64 293 7.0 13.0 0.00 0.00 0.00 30 1013.7
20260501195807 65 309 19.0 22.0 0.00 0.00 0.00 30 1013.5
20260501195305 64 326 7.0 11.0 0.00 0.00 0.00 31 1013.5
20260501194759 64 293 6.0 17.0 0.00 0.00 0.00 31 1013.5
20260501194255 65 294 9.0 9.0 0.00 0.00 0.00 29 1013.5
20260501193751 65 281 8.0 14.0 0.00 0.00 0.00 28 1013.7
20260501193250 65 281 7.0 13.0 0.00 0.00 0.00 29 1013.7
20260501192747 64 266 1.0 9.0 0.00 0.00 0.00 33 1014.0
20260501192244 65 283 4.0 11.0 0.00 0.00 0.00 33 1014.0
20260501191741 65 279 7.0 9.0 0.00 0.00 0.00 30 1014.2
20260501191238 65 312 1.0 4.0 0.00 0.00 0.00 28 1014.0
20260501190735 64 222 4.0 11.0 0.00 0.00 0.00 30 1014.2
20260501190230 65 240 5.0 13.0 0.00 0.00 0.00 30 1014.1
20260501185726 64 319 1.0 3.0 0.00 0.00 0.00 34 1014.1
20260501185223 64 186 6.0 10.0 0.00 0.00 0.00 26 1014.3
20260501184719 64 239 1.0 13.0 0.00 0.00 0.00 30 1014.2
20260501184215 65 297 9.0 15.0 0.00 0.00 0.00 25 1014.3
20260501183711 65 268 0.0 7.0 0.00 0.00 0.00 29 1014.2
20260501183208 64 306 5.0 8.0 0.00 0.00 0.00 28 1014.1
20260501182704 64 286 6.0 8.0 0.00 0.00 0.00 31 1014.3
20260501182201 63 283 8.0 11.0 0.00 0.00 0.00 35 1014.3
20260501181658 64 290 13.0 16.0 0.00 0.00 0.00 26 1014.4
20260501181155 64 286 2.0 6.0 0.00 0.00 0.00 30 1014.4
20260501180653 62 195 7.0 11.0 0.00 0.00 0.00 30 1014.5
20260501180149 63 222 3.0 4.0 0.00 0.00 0.00 31 1014.5
20260501175645 63 146 11.0 14.0 0.00 0.00 0.00 39 1014.4
20260501175143 63 254 4.0 6.0 0.00 0.00 0.00 35 1014.6
20260501174639 64 216 6.0 7.0 0.00 0.00 0.00 32 1014.6
20260501174137 62 42 0.0 2.0 0.00 0.00 0.00 36 1014.9
20260501173634 62 282 7.0 10.0 0.00 0.00 0.00 38 1014.8
20260501173131 62 161 4.0 6.0 0.00 0.00 0.00 33 1014.8
20260501172627 62 142 1.0 6.0 0.00 0.00 0.00 40 1014.8
20260501172122 61 281 3.0 6.0 0.00 0.00 0.00 33 1015.3
20260501171618 60 241 3.0 6.0 0.00 0.00 0.00 36 1015.2
20260501171115 61 156 9.0 10.0 0.00 0.00 0.00 36 1015.4
20260501170612 60 182 8.0 10.0 0.00 0.00 0.00 33 1015.4
20260501170109 61 159 4.0 8.0 0.00 0.00 0.00 41 1015.5
20260501165606 59 277 0.0 4.0 0.00 0.00 0.00 35 1015.6
20260501165104 58 294 6.0 8.0 0.00 0.00 0.00 42 1015.7
20260501164601 57 110 6.0 8.0 0.00 0.00 0.00 50 1015.5
20260501164058 58 118 6.0 15.0 0.00 0.00 0.00 44 1015.5
20260501163555 58 150 7.0 11.0 0.00 0.00 0.00 46 1015.6
20260501163052 57 164 2.0 4.0 0.00 0.00 0.00 47 1016.0
20260501162548 57 126 5.0 8.0 0.00 0.00 0.00 55 1015.8
20260501162044 56 144 4.0 8.0 0.00 0.00 0.00 53 1015.8
20260501161542 57 129 3.0 8.0 0.00 0.00 0.00 51 1016.0
20260501161038 56 180 4.0 7.0 0.00 0.00 0.00 52 1015.8
20260501160536 56 96 5.0 10.0 0.00 0.00 0.00 55 1016.1
20260501160033 56 112 7.0 8.0 0.00 0.00 0.00 57 1016.2
20260501155529 54 193 4.0 8.0 0.00 0.00 0.00 58 1016.5
20260501155026 55 138 7.0 8.0 0.00 0.00 0.00 57 1016.6